GW1031 Weather Reports


Display with metric or nautical units.
time (UTC)temp
F
wind
direction
speed
MPH
gust
MPH
rain 1hr
in
rain 24hr
in
rain mn
in
humidity
%
barometer
mb
20260508100015 36 118 0.0 0.0 0.00 0.00 0.00 86 1019.0
20260508095512 36 98 1.0 1.0 0.00 0.00 0.00 84 1019.0
20260508095009 36 198 0.0 0.0 0.00 0.00 0.00 81 1018.6
20260508094506 36 198 0.0 0.0 0.00 0.00 0.00 80 1018.8
20260508094003 35 176 0.0 0.0 0.00 0.00 0.00 83 1018.6
20260508093500 36 149 0.0 0.0 0.00 0.00 0.00 86 1019.0
20260508092958 36 160 0.0 0.0 0.00 0.00 0.00 84 1019.1
20260508092455 36 160 0.0 0.0 0.00 0.00 0.00 83 1019.1
20260508091954 37 130 0.0 0.0 0.00 0.00 0.00 85 1018.5
20260508091450 37 164 0.0 0.0 0.00 0.00 0.00 80 1018.8
20260508090947 37 165 0.0 0.0 0.00 0.00 0.00 79 1019.0
20260508090446 36 144 0.0 0.0 0.00 0.00 0.00 80 1018.6
20260508085941 37 144 0.0 0.0 0.00 0.00 0.00 79 1018.8
20260508085438 37 144 0.0 0.0 0.00 0.00 0.00 79 1018.8
20260508084935 38 144 0.0 0.0 0.00 0.00 0.00 76 1019.0
20260508084431 38 162 0.0 0.0 0.00 0.00 0.00 76 1019.1
20260508083930 38 128 0.0 0.0 0.00 0.00 0.00 79 1019.0
20260508083427 38 199 0.0 0.0 0.00 0.00 0.00 75 1019.1
20260508082926 38 199 0.0 0.0 0.00 0.00 0.00 73 1019.0
20260508082424 38 178 0.0 0.0 0.00 0.00 0.00 80 1019.0
20260508081922 38 135 0.0 0.0 0.00 0.00 0.00 78 1018.8
20260508081418 38 135 0.0 0.0 0.00 0.00 0.00 77 1019.0
20260508080915 38 165 0.0 0.0 0.00 0.00 0.00 74 1018.8
20260508080413 39 149 0.0 0.0 0.00 0.00 0.00 73 1019.0
20260508075909 39 178 0.0 0.0 0.00 0.00 0.00 74 1019.1
20260508075407 39 129 0.0 0.0 0.00 0.00 0.00 76 1019.1
20260508074904 39 105 0.0 1.0 0.00 0.00 0.00 77 1019.2
20260508074401 39 128 0.0 0.0 0.00 0.00 0.00 72 1019.1
20260508073858 39 120 0.0 0.0 0.00 0.00 0.00 74 1019.2
20260508073356 40 120 0.0 0.0 0.00 0.00 0.00 75 1019.1
20260508072852 40 105 0.0 0.0 0.00 0.00 0.00 75 1019.0
20260508072349 40 171 0.0 0.0 0.00 0.00 0.00 67 1019.1
20260508071846 40 171 0.0 0.0 0.00 0.00 0.00 68 1019.0
20260508071345 40 146 0.0 0.0 0.00 0.00 0.00 69 1019.1
20260508070842 41 146 0.0 0.0 0.00 0.00 0.00 68 1019.0
20260508070340 41 141 0.0 0.0 0.00 0.00 0.00 67 1018.8
20260508065837 41 143 0.0 0.0 0.00 0.00 0.00 70 1019.1
20260508065335 42 135 0.0 0.0 0.00 0.00 0.00 67 1018.8
20260508064833 42 146 0.0 0.0 0.00 0.00 0.00 65 1019.0
20260508064330 43 137 0.0 0.0 0.00 0.00 0.00 63 1018.8
20260508063828 42 132 0.0 0.0 0.00 0.00 0.00 68 1019.0
20260508063325 42 149 0.0 0.0 0.00 0.00 0.00 60 1018.7
20260508062822 42 149 0.0 0.0 0.00 0.00 0.00 63 1018.8
20260508062320 42 146 0.0 0.0 0.00 0.00 0.00 64 1018.7
20260508061816 42 146 0.0 0.0 0.00 0.00 0.00 67 1018.8
20260508061314 43 125 0.0 0.0 0.00 0.00 0.00 71 1018.7
20260508060810 44 129 0.0 0.0 0.00 0.00 0.00 65 1018.5
20260508060308 44 125 0.0 0.0 0.00 0.00 0.00 65 1019.0
20260508055803 44 204 0.0 0.0 0.00 0.00 0.00 56 1018.7
20260508055301 45 204 0.0 0.0 0.00 0.00 0.00 57 1018.6
20260508054756 44 176 0.0 0.0 0.00 0.00 0.00 58 1018.6
20260508054255 45 140 0.0 0.0 0.00 0.00 0.00 61 1018.8
20260508053751 46 140 0.0 0.0 0.00 0.00 0.00 63 1018.6
20260508053249 46 111 0.0 0.0 0.00 0.00 0.00 63 1018.8
20260508052746 47 135 0.0 0.0 0.00 0.00 0.00 54 1018.5
20260508052243 47 180 0.0 0.0 0.00 0.00 0.00 53 1018.2
20260508051739 48 155 0.0 0.0 0.00 0.00 0.00 54 1018.6
20260508051235 48 155 0.0 0.0 0.00 0.00 0.00 54 1018.2
20260508050731 49 132 0.0 0.0 0.00 0.00 0.00 50 1018.5
20260508050229 50 194 0.0 0.0 0.00 0.00 0.00 47 1018.5
20260508045724 50 151 0.0 0.0 0.00 0.00 0.00 47 1018.6
20260508045222 51 150 0.0 0.0 0.00 0.00 0.00 50 1018.7
20260508044719 52 142 0.0 0.0 0.00 0.00 0.00 49 1018.6
20260508044216 53 117 0.0 0.0 0.00 0.00 0.00 44 1018.4
20260508043711 54 150 0.0 0.0 0.00 0.00 0.00 40 1018.2
20260508043210 54 231 0.0 0.0 0.00 0.00 0.00 38 1018.2
20260508042706 54 137 0.0 0.0 0.00 0.00 0.00 41 1018.2
20260508042203 55 177 0.0 0.0 0.00 0.00 0.00 38 1018.4
20260508041659 55 134 0.0 0.0 0.00 0.00 0.00 43 1018.0
20260508041157 57 232 0.0 0.0 0.00 0.00 0.00 37 1018.1
20260508040653 58 182 0.0 0.0 0.00 0.00 0.00 35 1018.1
20260508040150 57 98 0.0 0.0 0.00 0.00 0.00 30 1017.9
20260508035647 55 232 0.0 0.0 0.00 0.00 0.00 37 1017.8
20260508035145 55 137 0.0 0.0 0.00 0.00 0.00 39 1017.9
20260508034641 56 119 0.0 0.0 0.00 0.00 0.00 38 1017.9
20260508034139 56 231 0.0 0.0 0.00 0.00 0.00 36 1018.0
20260508033636 56 313 0.0 1.0 0.00 0.00 0.00 33 1017.9
20260508033134 57 233 0.0 0.0 0.00 0.00 0.00 35 1017.8
20260508032630 58 1 0.0 0.0 0.00 0.00 0.00 34 1017.6
20260508032128 58 168 0.0 0.0 0.00 0.00 0.00 33 1017.6
20260508031625 58 263 1.0 1.0 0.00 0.00 0.00 32 1017.3
20260508031121 58 125 0.0 0.0 0.00 0.00 0.00 31 1017.4
20260508030618 58 42 0.0 1.0 0.00 0.00 0.00 33 1017.4
20260508030116 58 163 0.0 0.0 0.00 0.00 0.00 31 1017.4
20260508025612 59 124 0.0 0.0 0.00 0.00 0.00 32 1017.0
20260508025109 58 250 1.0 1.0 0.00 0.00 0.00 30 1017.0
20260508024605 58 209 0.0 0.0 0.00 0.00 0.00 31 1016.8
20260508024102 59 174 0.0 0.0 0.00 0.00 0.00 32 1016.9
20260508023558 60 279 0.0 0.0 0.00 0.00 0.00 32 1016.8
20260508023056 62 106 0.0 1.0 0.00 0.00 0.00 32 1016.7
20260508022551 63 167 0.0 0.0 0.00 0.00 0.00 26 1016.5
20260508022049 63 71 5.0 7.0 0.00 0.00 0.00 26 1016.5
20260508021544 63 245 0.0 0.0 0.00 0.00 0.00 27 1016.4
20260508021040 61 168 2.0 3.0 0.00 0.00 0.00 25 1016.3
20260508020538 62 72 0.0 0.0 0.00 0.00 0.00 29 1016.2
20260508020036 64 139 0.0 0.0 0.00 0.00 0.00 26 1015.9
20260508015533 65 259 1.0 2.0 0.00 0.00 0.00 24 1016.2
20260508015030 65 257 0.0 1.0 0.00 0.00 0.00 23 1016.0
20260508014526 65 239 3.0 3.0 0.00 0.00 0.00 22 1015.9
20260508014022 66 205 0.0 1.0 0.00 0.00 0.00 22 1015.6
20260508013519 65 277 2.0 2.0 0.00 0.00 0.00 22 1015.6
20260508013016 65 249 1.0 2.0 0.00 0.00 0.00 22 1015.7
20260508012513 66 155 0.0 0.0 0.00 0.00 0.00 23 1015.6
20260508012010 67 186 0.0 0.0 0.00 0.00 0.00 21 1015.4
20260508011509 68 242 2.0 2.0 0.00 0.00 0.00 22 1015.6
20260508011006 68 254 2.0 2.0 0.00 0.00 0.00 22 1015.4
20260508010503 68 240 0.0 0.0 0.00 0.00 0.00 21 1015.2
20260508010000 68 313 1.0 1.0 0.00 0.00 0.00 23 1015.3
20260508005456 68 239 1.0 1.0 0.00 0.00 0.00 22 1015.2
20260508004953 69 200 0.0 0.0 0.00 0.00 0.00 24 1015.2
20260508004449 69 326 1.0 1.0 0.00 0.00 0.00 22 1014.8
20260508003946 69 240 3.0 3.0 0.00 0.00 0.00 22 1014.8
20260508003443 70 238 5.0 8.0 0.00 0.00 0.00 21 1014.9
20260508002940 72 291 1.0 1.0 0.00 0.00 0.00 22 1014.9
20260508002436 72 282 0.0 0.0 0.00 0.00 0.00 21 1015.1
20260508001932 72 92 2.0 3.0 0.00 0.00 0.00 22 1014.8
20260508001429 73 97 1.0 1.0 0.00 0.00 0.00 19 1014.8
20260508000925 73 228 1.0 2.0 0.00 0.00 0.00 18 1014.9
20260508000421 75 96 2.0 2.0 0.00 0.00 0.00 17 1015.1
20260507235918 73 255 0.0 1.0 0.00 0.00 0.00 21 1014.6
20260507235415 73 86 1.0 1.0 0.00 0.00 0.00 23 1014.9
20260507234912 72 27 0.0 1.0 0.00 0.00 0.00 24 1014.8
20260507234409 72 245 0.0 1.0 0.00 0.00 0.00 22 1014.9
20260507233905 70 233 0.0 0.0 0.00 0.00 0.00 20 1015.1
20260507233403 70 61 0.0 1.0 0.00 0.00 0.00 22 1014.9
20260507232902 71 163 0.0 0.0 0.00 0.00 0.00 27 1015.1
20260507232357 70 206 0.0 0.0 0.00 0.00 0.00 26 1015.1
20260507231855 72 99 1.0 1.0 0.00 0.00 0.00 21 1014.9
20260507231351 73 276 1.0 1.0 0.00 0.00 0.00 24 1015.3
20260507230848 73 29 0.0 1.0 0.00 0.00 0.00 23 1014.8
20260507230345 73 239 0.0 1.0 0.00 0.00 0.00 25 1015.2
20260507225844 73 263 0.0 1.0 0.00 0.00 0.00 20 1015.6
20260507225341 75 250 2.0 3.0 0.00 0.00 0.00 18 1015.6
20260507224837 76 123 1.0 2.0 0.00 0.00 0.00 18 1015.7
20260507224334 75 87 1.0 1.0 0.00 0.00 0.00 19 1015.6
20260507223830 75 273 2.0 2.0 0.00 0.00 0.00 19 1015.8
20260507223326 75 276 2.0 2.0 0.00 0.00 0.00 19 1015.6
20260507222824 75 213 3.0 3.0 0.00 0.00 0.00 19 1015.6
20260507222320 75 304 1.0 2.0 0.00 0.00 0.00 23 1015.8
20260507221817 74 271 5.0 6.0 0.00 0.00 0.00 18 1015.9
20260507221314 74 219 0.0 0.0 0.00 0.00 0.00 21 1015.9
20260507220809 74 253 3.0 5.0 0.00 0.00 0.00 18 1015.8
20260507220308 74 198 1.0 2.0 0.00 0.00 0.00 18 1016.2
20260507215804 73 270 1.0 1.0 0.00 0.00 0.00 20 1016.2
20260507215302 74 274 2.0 2.0 0.00 0.00 0.00 18 1016.0
20260507214759 74 245 0.0 1.0 0.00 0.00 0.00 24 1016.4
20260507214256 73 97 1.0 1.0 0.00 0.00 0.00 20 1016.7
20260507213750 73 168 0.0 1.0 0.00 0.00 0.00 19 1016.7
20260507213248 73 38 1.0 1.0 0.00 0.00 0.00 21 1016.4
20260507212745 73 88 1.0 1.0 0.00 0.00 0.00 20 1016.7
20260507212241 74 196 3.0 3.0 0.00 0.00 0.00 20 1016.9
20260507211738 73 164 1.0 2.0 0.00 0.00 0.00 18 1016.8
20260507211234 73 311 1.0 2.0 0.00 0.00 0.00 17 1017.0
20260507210731 73 142 0.0 1.0 0.00 0.00 0.00 22 1017.3
20260507210228 72 81 1.0 1.0 0.00 0.00 0.00 21 1017.1
20260507205724 73 210 0.0 0.0 0.00 0.00 0.00 20 1017.6
20260507205221 73 299 2.0 3.0 0.00 0.00 0.00 18 1017.3
20260507204717 71 83 1.0 1.0 0.00 0.00 0.00 20 1017.5
20260507204215 71 242 4.0 6.0 0.00 0.00 0.00 18 1017.8
20260507203713 71 118 3.0 3.0 0.00 0.00 0.00 18 1017.6
20260507203210 72 263 5.0 6.0 0.00 0.00 0.00 20 1017.8
20260507202706 70 231 0.0 1.0 0.00 0.00 0.00 20 1017.9
20260507202202 71 296 4.0 6.0 0.00 0.00 0.00 22 1017.9
20260507201657 71 238 2.0 3.0 0.00 0.00 0.00 21 1018.0
20260507201154 71 197 4.0 5.0 0.00 0.00 0.00 20 1018.4
20260507200650 70 200 1.0 2.0 0.00 0.00 0.00 21 1018.4
20260507200146 70 38 1.0 2.0 0.00 0.00 0.00 19 1018.1
20260507195643 70 228 0.0 1.0 0.00 0.00 0.00 20 1018.5
20260507195140 71 304 1.0 1.0 0.00 0.00 0.00 24 1018.4
20260507194637 69 251 1.0 1.0 0.00 0.00 0.00 20 1018.6
20260507194132 69 130 3.0 6.0 0.00 0.00 0.00 18 1018.6
20260507193630 69 224 1.0 2.0 0.00 0.00 0.00 19 1018.6
20260507193127 69 25 1.0 2.0 0.00 0.00 0.00 20 1018.7
20260507192623 68 205 2.0 3.0 0.00 0.00 0.00 20 1018.6
20260507192120 69 96 0.0 0.0 0.00 0.00 0.00 20 1018.8
20260507191616 68 232 2.0 2.0 0.00 0.00 0.00 21 1019.1
20260507191112 68 240 3.0 8.0 0.00 0.00 0.00 18 1019.1
20260507190610 68 199 1.0 2.0 0.00 0.00 0.00 25 1019.0
20260507190109 67 182 3.0 6.0 0.00 0.00 0.00 20 1019.2
20260507185607 67 259 2.0 2.0 0.00 0.00 0.00 20 1019.2
20260507185103 68 119 1.0 1.0 0.00 0.00 0.00 22 1019.1
20260507184601 67 202 2.0 3.0 0.00 0.00 0.00 21 1019.2
20260507184059 67 332 2.0 3.0 0.00 0.00 0.00 21 1019.3
20260507183554 66 88 0.0 0.0 0.00 0.00 0.00 22 1019.3
20260507183052 66 153 3.0 3.0 0.00 0.00 0.00 20 1019.5
20260507182548 66 257 2.0 2.0 0.00 0.00 0.00 19 1019.6
20260507182044 65 230 2.0 3.0 0.00 0.00 0.00 19 1019.6
20260507181541 65 191 1.0 1.0 0.00 0.00 0.00 20 1019.6
20260507181037 64 249 2.0 3.0 0.00 0.00 0.00 21 1019.8
20260507180534 64 199 1.0 2.0 0.00 0.00 0.00 20 1020.1
20260507180031 64 217 3.0 5.0 0.00 0.00 0.00 20 1019.9
20260507175527 63 203 1.0 2.0 0.00 0.00 0.00 22 1020.2
20260507175025 63 129 1.0 2.0 0.00 0.00 0.00 19 1020.1
20260507174521 62 242 2.0 2.0 0.00 0.00 0.00 21 1020.4
20260507174019 62 247 1.0 2.0 0.00 0.00 0.00 19 1020.3
20260507173516 62 240 1.0 1.0 0.00 0.00 0.00 18 1020.3
20260507173014 61 115 1.0 1.0 0.00 0.00 0.00 18 1020.6
20260507172509 60 273 2.0 2.0 0.00 0.00 0.00 17 1020.4
20260507172006 60 226 1.0 2.0 0.00 0.00 0.00 20 1020.6
20260507171501 60 130 0.0 1.0 0.00 0.00 0.00 22 1020.7
20260507171000 59 233 3.0 5.0 0.00 0.00 0.00 21 1020.8
20260507170456 60 169 1.0 2.0 0.00 0.00 0.00 19 1021.0
20260507165952 59 249 2.0 2.0 0.00 0.00 0.00 19 1020.9
20260507165448 59 299 1.0 2.0 0.00 0.00 0.00 25 1021.0
20260507164944 58 203 1.0 1.0 0.00 0.00 0.00 20 1021.2
20260507164441 58 276 2.0 2.0 0.00 0.00 0.00 22 1021.3
20260507163938 57 181 1.0 1.0 0.00 0.00 0.00 24 1021.3
20260507163435 56 147 2.0 2.0 0.00 0.00 0.00 21 1021.5
20260507162932 55 285 0.0 1.0 0.00 0.00 0.00 24 1021.4
20260507162427 55 264 1.0 1.0 0.00 0.00 0.00 27 1021.8
20260507161925 54 79 0.0 1.0 0.00 0.00 0.00 28 1021.9
20260507161421 54 127 1.0 1.0 0.00 0.00 0.00 23 1021.8
20260507160918 54 126 1.0 2.0 0.00 0.00 0.00 25 1021.9
20260507160414 53 110 0.0 0.0 0.00 0.00 0.00 31 1021.9
20260507155910 53 92 1.0 2.0 0.00 0.00 0.00 24 1022.1
20260507155406 53 226 0.0 1.0 0.00 0.00 0.00 23 1022.0
20260507154903 53 126 0.0 0.0 0.00 0.00 0.00 31 1022.1
20260507154400 51 137 0.0 0.0 0.00 0.00 0.00 29 1022.3
20260507153857 51 109 1.0 1.0 0.00 0.00 0.00 30 1022.3
20260507153353 50 36 0.0 1.0 0.00 0.00 0.00 28 1022.3
20260507152850 50 49 1.0 1.0 0.00 0.00 0.00 37 1022.5
20260507152347 50 37 1.0 1.0 0.00 0.00 0.00 32 1022.5
20260507151843 49 158 0.0 0.0 0.00 0.00 0.00 31 1022.6
20260507151339 48 100 0.0 0.0 0.00 0.00 0.00 36 1022.9
20260507150836 47 114 2.0 2.0 0.00 0.00 0.00 38 1023.0
20260507150333 47 120 1.0 1.0 0.00 0.00 0.00 43 1023.0
20260507145829 44 90 1.0 1.0 0.00 0.00 0.00 42 1022.9
20260507145325 42 121 0.0 0.0 0.00 0.00 0.00 55 1023.2
20260507144823 40 107 0.0 0.0 0.00 0.00 0.00 56 1023.4
20260507144320 39 89 1.0 2.0 0.00 0.00 0.00 57 1023.2
20260507143816 40 113 0.0 0.0 0.00 0.00 0.00 63 1023.2
20260507143314 40 142 0.0 0.0 0.00 0.00 0.00 71 1023.5
20260507142809 39 113 0.0 0.0 0.00 0.00 0.00 71 1023.2
20260507142307 39 112 0.0 0.0 0.00 0.00 0.00 74 1023.4
20260507141803 38 146 0.0 0.0 0.00 0.00 0.00 76 1023.2
20260507141300 37 114 1.0 1.0 0.00 0.00 0.00 73 1023.6
20260507140755 36 102 0.0 0.0 0.00 0.00 0.00 82 1023.8
20260507140253 36 107 0.0 0.0 0.00 0.00 0.00 74 1023.6
20260507135750 37 106 0.0 0.0 0.00 0.00 0.00 67 1024.1
20260507135247 39 129 0.0 0.0 0.00 0.00 0.00 66 1023.8
20260507134744 37 124 0.0 0.0 0.00 0.00 0.00 66 1023.8
20260507134240 35 129 0.0 0.0 0.00 0.00 0.00 68 1023.7
20260507133736 33 90 1.0 1.0 0.00 0.00 0.00 70 1023.7
20260507133233 33 146 0.0 0.0 0.00 0.00 0.00 73 1023.8
20260507132731 31 149 0.0 0.0 0.00 0.00 0.00 80 1023.8
20260507132227 30 142 0.0 0.0 0.00 0.00 0.00 80 1023.7
20260507131724 30 107 0.0 0.0 0.00 0.00 0.00 80 1023.5
20260507131221 28 142 0.0 0.0 0.00 0.00 0.00 79 1023.6
20260507130718 28 101 0.0 0.0 0.00 0.00 0.00 81 1023.8
20260507130216 27 166 0.0 0.0 0.00 0.00 0.00 81 1023.5
20260507125714 26 174 0.0 0.0 0.00 0.00 0.00 82 1023.7
20260507125212 27 171 0.0 0.0 0.00 0.00 0.00 83 1023.6
20260507124708 26 107 0.0 1.0 0.00 0.00 0.00 81 1023.8
20260507124205 26 180 0.0 0.0 0.00 0.00 0.00 79 1023.5
20260507123703 25 181 0.0 0.0 0.00 0.00 0.00 78 1023.7
20260507123200 25 156 0.0 0.0 0.00 0.00 0.00 79 1023.7
20260507122655 26 156 0.0 0.0 0.00 0.00 0.00 80 1023.7
20260507122151 26 186 0.0 0.0 0.00 0.00 0.00 81 1023.5
20260507121647 25 159 0.0 0.0 0.00 0.00 0.00 78 1023.5
20260507121143 26 100 0.0 0.0 0.00 0.00 0.00 81 1023.2
20260507120640 25 154 0.0 0.0 0.00 0.00 0.00 83 1023.2
20260507120136 25 159 0.0 0.0 0.00 0.00 0.00 81 1023.4
20260507115632 25 156 0.0 0.0 0.00 0.00 0.00 79 1023.4
20260507115128 26 155 0.0 0.0 0.00 0.00 0.00 80 1023.5
20260507114624 26 181 0.0 0.0 0.00 0.00 0.00 79 1023.5
20260507114122 26 122 0.0 0.0 0.00 0.00 0.00 78 1023.1
20260507113619 26 182 0.0 0.0 0.00 0.00 0.00 79 1023.2
20260507113116 26 189 0.0 0.0 0.00 0.00 0.00 77 1023.4
20260507112614 26 200 0.0 0.0 0.00 0.00 0.00 77 1023.2
20260507112110 27 193 0.0 0.0 0.00 0.00 0.00 77 1023.2
20260507111608 27 108 0.0 0.0 0.00 0.00 0.00 77 1022.9
20260507111104 27 123 0.0 0.0 0.00 0.00 0.00 82 1023.4
20260507110601 26 181 0.0 0.0 0.00 0.00 0.00 79 1023.1
20260507110057 26 221 0.0 0.0 0.00 0.00 0.00 78 1023.0
20260507105554 26 151 0.0 0.0 0.00 0.00 0.00 79 1022.8
20260507105050 26 121 0.0 0.0 0.00 0.00 0.00 78 1022.6
20260507104548 27 195 0.0 0.0 0.00 0.00 0.00 77 1023.2
20260507104044 27 158 0.0 0.0 0.00 0.00 0.00 77 1022.9
20260507103540 27 199 0.0 0.0 0.00 0.00 0.00 74 1023.0
20260507103037 27 128 0.0 0.0 0.00 0.00 0.00 80 1023.0
20260507102533 27 201 0.0 0.0 0.00 0.00 0.00 78 1023.1
20260507102031 27 71 0.0 0.0 0.00 0.00 0.00 79 1022.8
20260507101525 27 96 0.0 1.0 0.00 0.00 0.00 81 1022.5
20260507101022 27 194 0.0 0.0 0.00 0.00 0.00 78 1022.6
20260507100519 27 166 0.0 0.0 0.00 0.00 0.00 79 1022.6